Visibility
15.0 15.0 15.0 15.0 15.0 15.0 15.0 15.0 15.0 15.0 15.0 15.0 15.0 14.9 15.0 14.6 15.0 12.9 15.0 13.5 0.8 0.0 14.6 12.9 7.4 2.1 9.1 4.0 5.7 0.2 0.4 0.1 0.0 0.0 0.2 3.7 14.7 4.8 10.1 14.2 15.0 11.6 8.8 2.0 3.6 3.1 5.9 15.0 15.0 15.0 8.5 15.0 15.0 15.0
15.0 15.0 15.0 15.0 15.0 15.0 12.3 15.0 15.0 15.0 15.0 15.0 15.0 15.0 15.0 15.0 15.0 7.1 9.7 15.0 12.9 0.2 1.8 9.1 15.0 15.0 15.0 15.0 13.5 0.1 0.2 0.2 0.0 0.5 1.6 2.4 2.8 14.5 14.5 2.1 5.0 15.0 13.8 15.0 2.6 13.8 15.0 15.0 15.0 15.0 15.0 15.0 15.0 15.0
15.0 15.0 15.0 15.0 15.0 15.0 15.0 15.0 15.0 15.0 15.0 15.0 15.0 15.0 15.0 11.6 15.0 8.8 7.7 14.7 7.2 4.8 13.7 15.0 15.0 15.0 15.0 15.0 15.0 0.2 0.4 5.2 0.0 4.7 4.5 2.5 10.7 14.9 14.8 15.0 14.7 15.0 15.0 14.9 14.8 15.0 15.0 15.0 15.0 15.0 15.0 15.0 15.0 15.0
15.0 15.0 15.0 15.0 15.0 15.0 15.0 15.0 15.0 15.0 15.0 15.0 15.0 15.0 15.0 15.0 11.1 11.2 7.2 10.1 8.2 9.9 0.6 15.0 15.0 15.0 15.0 15.0 15.0 15.0 15.0 14.4 7.1 0.1 0.4 1.6 2.7 14.9 14.7 9.0 12.4 11.5 12.2 15.0 15.0 15.0 13.7 15.0 15.0 15.0 15.0 15.0 10.0 15.0
8.4 8.2 13.5 15.0 15.0 15.0 15.0 15.0 15.0 14.4 15.0 15.0 15.0 15.0 15.0 10.5 8.2 5.7 6.0 9.3 7.9 1.8 1.5 4.0 15.0 15.0 15.0 15.0 15.0 15.0 12.9 15.0 10.3 0.0 0.0 5.0 14.7 9.5 15.0 7.6 15.0 15.0 15.0 15.0 15.0 15.0 10.8 15.0 15.0 15.0 15.0 15.0 15.0 15.0
15.0 14.9 6.4 2.8 3.4 9.8 15.0 15.0 15.0 14.8 9.9 10.9 15.0 15.0 15.0 7.2 7.9 0.9 0.1 10.3 11.7 7.4 0.7 5.0 14.7 15.0 15.0 15.0 15.0 15.0 15.0 0.4 0.1 0.0 0.9 8.8 15.0 12.0 15.0 14.6 15.0 15.0 15.0 15.0 15.0 15.0 15.0 15.0 15.0 15.0 15.0 15.0 15.0 15.0
15.0 15.0 15.0 15.0 6.0 2.9 4.8 15.0 14.2 9.3 15.0 15.0 15.0 15.0 9.0 8.7 13.4 1.2 13.8 14.1 15.0 14.1 0.0 1.8 12.1 15.0 15.0 7.3 0.0 0.0 0.0 0.1 0.6 1.2 13.4 15.0 14.5 15.0 15.0 15.0 15.0 15.0 15.0 15.0 15.0 15.0 15.0 15.0 15.0 15.0 15.0 15.0 15.0 15.0
15.0 15.0 15.0 15.0 15.0 4.6 4.8 14.6 15.0 15.0 15.0 15.0 15.0 15.0 6.7 7.8 4.3 0.8 8.3 9.8 8.3 14.9 13.0 2.3 15.0 15.0 5.9 0.0 0.0 0.0 0.0 1.2 3.8 1.4 14.7 15.0 9.5 11.9 10.3 15.0 15.0 15.0 15.0 15.0 15.0 15.0 15.0 15.0 15.0 15.0 15.0 15.0 15.0 15.0
15.0 15.0 15.0 0.9 0.4 4.2 7.0 9.9 15.0 15.0 15.0 15.0 15.0 11.9 3.2 0.2 0.9 15.0 13.3 5.7 5.4 0.1 1.2 15.0 15.0 4.2 15.0 0.0 0.0 0.0 11.3 3.5 6.7 6.8 6.5 4.6 5.9 4.0 15.0 15.0 15.0 15.0 15.0 15.0 15.0 15.0 15.0 15.0 15.0 15.0 15.0 15.0 15.0 15.0
15.0 15.0 15.0 15.0 15.0 15.0 15.0 15.0 15.0 15.0 15.0 13.5 4.1 0.0 0.0 13.7 12.1 14.9 8.8 2.3 0.2 0.0 0.0 0.0 9.9 1.5 11.4 4.3 6.8 14.3 11.4 15.0 2.4 14.2 10.9 3.0 14.8 15.0 15.0 15.0 15.0 15.0 15.0 15.0 15.0 15.0 15.0 15.0 15.0 15.0 15.0 15.0 15.0 15.0
15.0 15.0 15.0 15.0 15.0 15.0 15.0 15.0 15.0 14.9 13.8 8.1 0.4 13.8 6.9 14.1 3.5 0.0 0.0 0.2 10.9 0.0 0.1 14.2 6.2 0.5 11.9 0.2 4.3 15.0 9.7 7.5 3.0 3.8 4.4 5.5 15.0 15.0 15.0 15.0 15.0 15.0 15.0 15.0 15.0 15.0 15.0 15.0 15.0 15.0 15.0 15.0 15.0 15.0
15.0 15.0 15.0 15.0 15.0 15.0 15.0 15.0 15.0 15.0 13.6 13.0 13.9 12.8 3.5 0.0 2.5 0.7 0.1 1.4 0.2 9.1 11.0 8.1 10.4 15.0 2.5 7.3 7.6 15.0 11.7 9.0 1.3 2.7 1.4 11.5 15.0 15.0 15.0 6.3 0.5 15.0 11.1 13.4 15.0 15.0 15.0 15.0 15.0 15.0 15.0 15.0 15.0 15.0
15.0 15.0 15.0 15.0 15.0 15.0 15.0 15.0 15.0 15.0 15.0 15.0 15.0 0.0 0.0 0.1 0.1 0.1 0.1 5.5 5.6 11.2 10.8 12.9 3.9 0.2 5.7 6.6 2.0 15.0 13.2 8.1 8.9 0.8 13.0 15.0 15.0 15.0 15.0 0.1 13.5 15.0 15.0 15.0 15.0 15.0 15.0 15.0 15.0 15.0 15.0 15.0 12.7 14.1
15.0 15.0 15.0 15.0 15.0 15.0 15.0 15.0 15.0 15.0 15.0 15.0 1.3 0.1 0.3 0.1 2.5 15.0 14.7 15.0 14.9 15.0 13.8 7.1 14.3 12.9 15.0 15.0 15.0 6.6 9.8 8.0 2.7 2.1 15.0 14.6 15.0 15.0 15.0 11.7 15.0 15.0 15.0 15.0 15.0 15.0 15.0 13.4 0.1 0.0 0.0 0.0 0.1 1.3
15.0 15.0 15.0 15.0 15.0 15.0 15.0 15.0 15.0 15.0 0.0 0.1 0.2 0.6 1.0 15.0 14.0 13.0 14.5 8.7 0.4 7.3 14.8 9.3 13.8 15.0 11.9 10.4 14.1 6.5 4.8 3.2 14.5 15.0 6.4 15.0 15.0 15.0 15.0 15.0 15.0 15.0 1.3 12.0 15.0 15.0 15.0 5.8 0.4 0.4 0.4 0.1 6.5 15.0
15.0 15.0 15.0 15.0 15.0 15.0 15.0 13.5 14.3 6.2 0.0 0.1 13.8 14.7 14.9 7.1 3.8 0.8 13.5 12.0 3.9 2.8 0.1 9.9 6.5 4.4 3.3 9.9 5.4 7.8 11.1 15.0 15.0 15.0 15.0 15.0 15.0 15.0 2.8 11.7 15.0 15.0 15.0 15.0 15.0 15.0 15.0 15.0 15.0 15.0 15.0 15.0 15.0 15.0
15.0 15.0 15.0 15.0 15.0 15.0 15.0 15.0 8.3 0.0 15.0 14.9 15.0 14.6 14.2 15.0 15.0 2.4 13.8 15.0 15.0 0.0 0.7 7.9 1.6 6.4 2.2 0.5 3.7 7.4 15.0 15.0 15.0 15.0 15.0 15.0 15.0 15.0 6.6 0.1 0.1 4.3 15.0 15.0 15.0 15.0 15.0 15.0 15.0 15.0 15.0 15.0 15.0 15.0
15.0 15.0 15.0 15.0 15.0 15.0 15.0 15.0 15.0 15.0 15.0 15.0 11.8 13.5 15.0 15.0 15.0 14.7 15.0 15.0 3.4 4.6 3.4 0.5 14.4 1.8 5.0 6.0 1.4 13.5 12.6 8.8 15.0 15.0 15.0 15.0 15.0 15.0 15.0 15.0 0.0 3.8 3.7 15.0 15.0 15.0 15.0 15.0 15.0 15.0 15.0 15.0 15.0 15.0
15.0 15.0 15.0 15.0 15.0 15.0 15.0 15.0 15.0 15.0 15.0 15.0 15.0 15.0 15.0 15.0 15.0 15.0 15.0 15.0 15.0 0.1 0.0 0.0 8.9 12.1 7.3 5.9 8.2 0.1 0.0 0.2 13.7 15.0 15.0 15.0 15.0 0.4 0.0 0.1 0.0 0.9 15.0 15.0 15.0 15.0 15.0 15.0 15.0 15.0 15.0 15.0 15.0 15.0
15.0 15.0 15.0 15.0 15.0 15.0 15.0 15.0 15.0 15.0 15.0 15.0 15.0 15.0 15.0 15.0 14.9 0.1 3.9 0.1 0.0 0.0 0.0 0.8 12.5 11.1 1.2 10.8 0.3 13.0 0.1 0.0 0.2 15.0 15.0 15.0 15.0 15.0 15.0 15.0 15.0 3.4 15.0 15.0 15.0 15.0 15.0 15.0 15.0 15.0 15.0 15.0 15.0 15.0
15.0 15.0 15.0 15.0 15.0 15.0 15.0 15.0 15.0 15.0 15.0 15.0 15.0 15.0 10.6 15.0 13.4 2.1 0.5 0.0 0.0 0.0 9.2 2.9 0.2 0.0 0.0 0.0 0.0 1.1 15.0 15.0 12.7 7.4 11.9 15.0 15.0 15.0 15.0 15.0 15.0 0.5 0.3 15.0 15.0 15.0 15.0 15.0 15.0 15.0 15.0 0.1 15.0 11.3
15.0 15.0 15.0 15.0 15.0 15.0 15.0 15.0 15.0 15.0 15.0 15.0 14.5 15.0 14.9 4.6 3.4 5.7 14.9 0.5 3.1 6.0 0.1 0.0 0.0 2.1 2.2 0.0 0.0 0.0 0.0 0.0 0.0 0.0 0.4 0.8 14.8 14.9 12.2 14.9 13.6 12.5 4.9 0.9 11.4 11.5 13.1 15.0 15.0 15.0 4.0 2.6 15.0 15.0
15.0 15.0 15.0 15.0 15.0 15.0 15.0 15.0 15.0 15.0 15.0 15.0 15.0 15.0 11.2 6.0 5.6 15.0 8.6 5.8 6.4 15.0 15.0 7.9 11.5 15.0 14.7 15.0 15.0 15.0 0.1 0.1 4.0 5.7 15.0 15.0 15.0 15.0 15.0 14.3 10.2 0.6 9.1 15.0 12.8 0.1 0.0 0.4 15.0 0.4 12.9 15.0 14.7 8.1
15.0 15.0 15.0 15.0 15.0 15.0 15.0 15.0 15.0 15.0 15.0 15.0 15.0 15.0 15.0 3.0 13.4 15.0 5.4 8.0 8.1 15.0 15.0 15.0 15.0 15.0 15.0 14.4 11.5 11.3 15.0 9.0 13.3 11.0 7.7 6.5 8.8 12.8 15.0 15.0 15.0 15.0 14.3 8.5 2.1 0.2 0.1 0.1 0.1 0.1 0.1 0.2 0.4 0.8
15.0 15.0 15.0 15.0 15.0 15.0 15.0 15.0 15.0 15.0 15.0 15.0 14.7 15.0 15.0 14.9 8.2 5.8 9.5 3.4 2.8 14.4 15.0 15.0 15.0 15.0 15.0 15.0 15.0 15.0 15.0 14.8 1.3 3.2 12.6 8.3 7.2 12.4 15.0 15.0 15.0 15.0 0.8 0.1 0.3 0.3 0.3 0.1 0.1 0.1 0.1 0.1 0.1 0.1
15.0 15.0 15.0 15.0 15.0 15.0 15.0 15.0 15.0 15.0 15.0 15.0 15.0 15.0 15.0 4.0 3.3 5.2 10.5 0.7 0.5 2.0 0.9 5.2 15.0 15.0 15.0 15.0 15.0 15.0 15.0 15.0 15.0 7.8 15.0 5.8 7.9 10.8 5.1 1.4 2.4 12.5 12.6 0.0 0.0 0.1 0.2 0.2 0.3 0.2 0.1 0.1 0.1 0.1
15.0 15.0 15.0 15.0 15.0 15.0 15.0 15.0 15.0 15.0 11.2 4.2 6.7 10.1 2.1 1.5 3.6 1.1 0.1 0.3 7.6 3.2 15.0 15.0 8.8 2.3 2.7 15.0 15.0 15.0 14.7 14.0 10.7 9.5 15.0 15.0 0.4 0.4 4.2 0.2 1.3 8.7 15.0 15.0 0.0 0.0 0.1 0.1 0.1 0.1 0.1 0.1 0.1 0.2
15.0 15.0 15.0 15.0 15.0 15.0 15.0 15.0 12.8 14.5 2.1 1.6 8.7 0.3 1.5 3.9 0.6 0.1 0.2 0.5 0.8 13.2 9.4 1.6 0.6 1.4 6.5 15.0 15.0 15.0 14.1 13.1 8.3 15.0 15.0 15.0 6.7 0.3 0.1 0.1 0.6 4.4 0.1 0.0 0.0 0.0 0.0 0.1 0.1 0.2 0.2 0.2 0.1 0.1
15.0 15.0 15.0 15.0 14.8 15.0 15.0 13.7 13.4 13.1 0.1 1.4 0.3 1.2 6.7 11.1 1.0 2.9 11.1 4.5 10.9 4.3 3.6 7.2 14.2 14.8 15.0 13.2 10.8 1.9 1.2 0.9 1.4 4.1 6.5 2.5 0.9 0.3 0.2 0.2 0.2 0.2 0.1 0.1 0.1 0.0 0.0 0.1 0.1 0.1 0.2 0.2 0.2 0.1
15.0 15.0 11.3 3.2 5.6 12.2 10.3 9.3 2.2 7.6 10.7 7.3 9.0 15.0 10.5 0.2 0.1 1.4 0.6 1.9 6.0 1.7 2.0 2.9 5.0 3.4 1.3 1.6 3.4 15.0 15.0 2.3 0.7 0.3 0.4 0.7 0.2 0.4 0.2 0.1 0.1 0.1 0.1 0.1 0.1 0.1 0.1 0.1 0.1 0.1 0.1 0.1 0.1 0.1
15.0 14.2 1.1 1.7 0.9 10.5 15.0 15.0 15.0 12.8 4.0 2.2 1.1 0.5 0.5 0.2 0.2 0.1 0.2 0.6 13.2 15.0 14.5 7.9 10.2 9.9 1.5 1.1 0.6 1.3 9.8 4.7 0.2 0.2 0.2 0.3 0.3 0.3 0.2 0.2 0.2 0.1 0.1 0.1 0.1 0.1 0.1 0.1 0.1 0.1 0.1 0.1 0.1 0.1
7.4 3.1 0.5 0.6 7.7 15.0 15.0 15.0 14.1 2.3 3.3 2.0 0.4 0.3 0.2 0.1 0.1 0.7 1.7 15.0 15.0 14.5 7.0 4.0 2.3 2.7 8.9 2.1 0.7 0.2 0.2 0.3 0.2 0.2 0.2 0.2 0.2 0.2 0.2 0.3 0.2 0.2 0.2 0.1 0.1 0.1 0.1 0.1 0.1 0.1 0.1 0.1 0.1 0.1
15.0 10.9 2.7 8.9 3.4 6.9 3.3 5.1 14.1 2.7 1.8 0.7 0.1 0.1 0.2 0.2 0.4 4.2 12.1 5.4 2.7 0.8 0.7 1.9 11.6 6.7 3.6 0.5 0.3 0.4 0.2 0.1 0.1 0.2 0.3 0.2 0.1 0.1 0.1 0.2 0.2 0.2 0.3 0.2 0.2 0.1 0.1 0.1 0.1 0.1 0.1 0.1 0.2 0.2